FW1340 Weather Reports


time (UTC)temp
C
wind
direction
speed
KPH
gust
KPH
rain 1hr
cm
rain 24hr
cm
rain mn
cm
humidity
%
barometer
mb
20260502194531 18 245 0.0 0.0 0.00 0.00 0.00 68 1012.8
20260502193031 18 294 0.0 0.0 0.00 0.00 0.00 71 1012.9
20260502191532 17 285 0.0 0.0 0.00 0.00 0.00 72 1013.0
20260502190030 17 295 0.0 0.0 0.00 0.00 0.00 71 1013.1
20260502184529 18 272 0.0 0.0 0.00 0.00 0.00 69 1013.1
20260502183028 18 269 0.0 0.0 0.00 0.00 0.00 68 1013.1
20260502181526 18 315 0.0 0.0 0.00 0.00 0.00 69 1013.0
20260502163016 15 317 0.0 0.0 0.00 0.00 0.00 81 1012.7
20260502161505 15 268 0.0 0.0 0.00 0.00 0.00 83 1012.8
20260502151556 13 256 0.0 0.0 0.00 0.00 0.00 89 1012.4
20260502123041 11 269 0.0 0.0 0.00 0.00 0.00 90 1011.3
20260502121528 11 269 0.0 0.0 0.00 0.00 0.00 90 1011.4
20260502114524 11 269 0.0 0.0 0.00 0.00 0.00 90 1011.4
20260502113029 11 288 0.0 0.0 0.00 0.00 0.00 89 1011.6
20260502111521 11 281 0.0 0.0 0.00 0.00 0.00 88 1011.7
20260502110022 12 268 0.0 0.0 0.00 0.00 0.00 88 1011.5
20260502104521 12 268 0.0 0.0 0.00 0.00 0.00 87 1011.7
20260502103018 12 285 0.0 0.0 0.00 0.00 0.00 86 1011.6
20260502101516 12 280 0.0 0.0 0.00 0.00 0.00 86 1011.6
20260502091508 13 263 0.0 0.0 0.00 0.00 0.00 82 1011.8
20260502070105 15 266 0.0 0.0 0.00 0.00 0.00 81 1012.0
20260502064552 15 266 0.0 0.0 0.00 0.00 0.00 81 1012.1
20260502063050 15 266 0.0 0.0 0.00 0.00 0.00 81 1012.0
20260502061547 15 269 0.0 0.0 0.00 0.00 0.00 81 1011.8
20260502060051 15 267 0.0 0.0 0.00 0.00 0.00 80 1012.0
20260502054547 16 269 0.0 0.0 0.00 0.00 0.00 79 1012.0
20260502053051 16 263 0.0 0.0 0.00 0.00 0.00 78 1012.0
20260502051557 16 263 0.0 0.0 0.00 0.00 0.00 77 1012.0
20260502050046 17 261 0.0 0.0 0.00 0.00 0.00 76 1011.9
20260502044545 17 261 0.0 0.0 0.00 0.00 0.00 75 1011.9
20260502043046 18 252 0.0 0.0 0.00 0.00 0.00 74 1011.7
20260502041542 18 269 0.0 0.0 0.00 0.00 0.00 73 1011.6
20260502040042 19 256 0.0 0.0 0.00 0.00 0.00 70 1011.3
20260502034542 20 263 0.0 0.0 0.00 0.00 0.00 69 1011.1
20260502033040 20 250 0.0 0.0 0.00 0.00 0.00 68 1010.9
20260502031540 21 273 0.0 0.0 0.00 0.00 0.00 68 1010.8
20260502030045 21 257 0.0 0.0 0.00 0.00 0.00 66 1010.6
20260502024540 22 269 0.0 0.0 0.00 0.00 0.00 62 1010.5
20260502023039 23 263 0.0 0.0 0.00 0.00 0.00 58 1010.4
20260502021537 25 250 0.0 0.0 0.00 0.00 0.00 55 1010.4
20260502020037 25 253 0.0 0.0 0.00 0.00 0.00 52 1010.4
20260502014537 26 268 0.0 0.0 0.00 0.00 0.00 50 1010.4
20260502013036 26 286 0.0 0.0 0.00 0.00 0.00 48 1010.4
20260502011535 26 255 0.0 0.0 0.00 0.00 0.00 47 1010.3
20260502010034 26 269 0.0 0.0 0.00 0.00 0.00 47 1010.5
20260502004533 27 251 0.0 0.0 0.00 0.00 0.00 47 1010.5
20260502003032 27 250 0.0 0.0 0.00 0.00 0.00 45 1010.5
20260502001537 27 252 0.0 0.0 0.00 0.00 0.00 46 1010.6
20260502000030 28 282 0.0 0.0 0.00 0.00 0.00 47 1010.6
20260501234532 28 252 0.0 0.0 0.00 0.00 0.00 48 1010.8
20260501233026 28 297 0.0 0.0 0.00 0.00 0.00 47 1010.9
20260501231524 28 253 0.0 0.0 0.00 0.00 0.00 47 1010.9
20260501230022 28 298 0.0 0.0 0.00 0.00 0.00 47 1011.1
20260501224520 28 268 0.0 0.0 0.00 0.00 0.00 49 1011.5
20260501223018 28 339 0.0 0.0 0.00 0.00 0.00 50 1011.6
20260501221516 28 240 0.0 0.0 0.00 0.00 0.00 50 1012.0
20260501220014 28 327 0.0 0.0 0.00 0.00 0.00 49 1012.1
20260501214511 27 336 0.0 0.0 0.00 0.00 0.00 49 1012.4
20260501213011 27 332 0.0 0.0 0.00 0.00 0.00 50 1012.3
20260501211507 27 298 0.0 0.0 0.00 0.00 0.00 50 1012.5
20260501210003 27 240 0.0 0.0 0.00 0.00 0.00 50 1012.5
20260501204603 26 245 0.0 0.0 0.00 0.00 0.00 50 1012.6
20260501203059 26 234 0.0 0.0 0.00 0.00 0.00 51 1012.8
20260501201558 25 213 0.0 0.0 0.00 0.00 0.00 52 1013.0
20260501200051 25 271 0.0 0.0 0.00 0.00 0.00 53 1013.1